Time,TemperatureF,DewpointF,PressureIn,WindDirection,WindDirectionDegrees,WindSpeedMPH,WindSpeedGustMPH,Humidity,HourlyPrecipIn,Conditions,Clouds,dailyrainin,SoftwareType,DateUTC
2013-03-10 00:00:00,38.0,36.2,29.72,ESE,118,4.0,7.0,93,0.26,,,1.30,Wunderground v.1.15,2013-03-10 06:00:00,
2013-03-10 00:06:00,38.5,36.9,29.72,ESE,108,6.0,7.0,94,0.10,,,0.00,Wunderground v.1.15,2013-03-10 06:06:00,
2013-03-10 00:12:00,38.1,36.5,29.72,ESE,108,5.0,5.0,94,0.05,,,0.00,Wunderground v.1.15,2013-03-10 06:12:00,
2013-03-10 00:31:00,39.4,38.4,29.73,ESE,117,3.0,7.0,96,0.09,,,0.02,Wunderground v.1.15,2013-03-10 06:31:00,
2013-03-10 00:37:00,39.8,38.8,29.73,ESE,117,2.0,7.0,96,0.05,,,0.02,Wunderground v.1.15,2013-03-10 06:37:00,
2013-03-10 00:42:00,40.1,39.1,29.73,ESE,117,1.0,7.0,96,0.00,,,0.02,Wunderground v.1.15,2013-03-10 06:42:00,
2013-03-10 00:48:00,40.1,39.1,29.73,ESE,117,1.0,7.0,96,0.00,,,0.02,Wunderground v.1.15,2013-03-10 06:48:00,
2013-03-10 00:54:00,39.7,38.4,29.74,ESE,117,0.0,7.0,95,0.00,,,0.02,Wunderground v.1.15,2013-03-10 06:54:00,
2013-03-10 00:59:00,39.4,38.1,29.74,ESE,117,0.0,7.0,95,0.00,,,0.02,Wunderground v.1.15,2013-03-10 06:59:00,
2013-03-10 01:04:00,39.3,38.0,29.74,ESE,117,0.0,7.0,95,0.00,,,0.03,Wunderground v.1.15,2013-03-10 07:04:00,
2013-03-10 01:09:00,39.6,38.6,29.74,ESE,117,0.0,7.0,96,0.15,,,0.04,Wunderground v.1.15,2013-03-10 07:09:00,
2013-03-10 01:15:00,39.9,38.9,29.74,ESE,117,0.0,7.0,96,0.11,,,0.05,Wunderground v.1.15,2013-03-10 07:15:00,
2013-03-10 01:21:00,40.0,39.0,29.74,ESE,117,1.0,7.0,96,0.14,,,0.06,Wunderground v.1.15,2013-03-10 07:21:00,
2013-03-10 01:27:00,40.0,39.0,29.74,ESE,117,1.0,7.0,96,0.07,,,0.07,Wunderground v.1.15,2013-03-10 07:27:00,
2013-03-10 01:32:00,39.8,38.5,29.73,SE,146,1.0,7.0,95,0.19,,,0.08,Wunderground v.1.15,2013-03-10 07:32:00,
2013-03-10 01:38:00,39.6,38.3,29.73,SSE,154,1.0,7.0,95,0.08,,,0.09,Wunderground v.1.15,2013-03-10 07:38:00,
2013-03-10 01:43:00,39.8,38.8,29.73,SE,146,2.0,7.0,96,0.13,,,0.10,Wunderground v.1.15,2013-03-10 07:43:00,
2013-03-10 01:53:00,40.6,39.5,29.75,NW,310,1.0,7.0,96,0.27,,,0.14,Wunderground v.1.15,2013-03-10 07:53:00,
2013-03-10 01:59:00,40.3,39.3,29.74,NW,310,2.0,7.0,96,0.10,,,0.14,Wunderground v.1.15,2013-03-10 07:59:00,
2013-03-10 03:04:00,40.1,39.1,29.74,NW,310,1.0,7.0,96,0.06,,,0.15,Wunderground v.1.15,2013-03-10 08:04:00,
2013-03-10 03:10:00,40.3,39.3,29.73,NW,310,0.0,7.0,96,0.06,,,0.15,Wunderground v.1.15,2013-03-10 08:10:00,
2013-03-10 03:15:00,40.1,39.1,29.73,SW,235,2.0,7.0,96,0.06,,,0.16,Wunderground v.1.15,2013-03-10 08:15:00,
2013-03-10 03:21:00,39.7,38.7,29.72,SW,235,1.0,7.0,96,0.06,,,0.16,Wunderground v.1.15,2013-03-10 08:21:00,
2013-03-10 03:26:00,39.8,38.8,29.71,SW,225,1.0,7.0,96,0.04,,,0.16,Wunderground v.1.15,2013-03-10 08:26:00,
2013-03-10 03:32:00,40.4,39.4,29.70,SW,225,2.0,7.0,96,0.00,,,0.16,Wunderground v.1.15,2013-03-10 08:32:00,
2013-03-10 03:37:00,40.4,39.4,29.69,South,191,2.0,7.0,96,0.00,,,0.16,Wunderground v.1.15,2013-03-10 08:37:00,
2013-03-10 03:43:00,40.8,39.7,29.65,SE,144,4.0,8.0,96,0.00,,,0.16,Wunderground v.1.15,2013-03-10 08:43:00,
2013-03-10 03:48:00,40.5,39.4,29.64,SSW,212,6.0,8.0,96,0.00,,,0.17,Wunderground v.1.15,2013-03-10 08:48:00,
2013-03-10 03:54:00,41.4,40.3,29.67,West,260,7.0,9.0,96,0.00,,,0.17,Wunderground v.1.15,2013-03-10 08:54:00,
2013-03-10 03:59:00,42.8,42.0,29.68,West,262,9.0,10.0,97,0.00,,,0.17,Wunderground v.1.15,2013-03-10 08:59:00,
2013-03-10 04:05:00,43.0,42.2,29.67,WSW,246,8.0,9.0,97,0.00,,,0.17,Wunderground v.1.15,2013-03-10 09:05:00,
2013-03-10 04:10:00,43.6,42.8,29.66,WSW,248,6.0,6.0,97,0.00,,,0.17,Wunderground v.1.15,2013-03-10 09:10:00,
2013-03-10 04:16:00,42.2,41.1,29.67,WSW,257,6.0,8.0,96,0.00,,,0.17,Wunderground v.1.15,2013-03-10 09:16:00,
2013-03-10 04:22:00,43.3,42.5,29.66,SW,236,7.0,8.0,97,0.00,,,0.17,Wunderground v.1.15,2013-03-10 09:22:00,
2013-03-10 04:27:00,42.9,42.1,29.66,West,279,7.0,8.0,97,0.00,,,0.17,Wunderground v.1.15,2013-03-10 09:27:00,
2013-03-10 04:33:00,43.4,42.6,29.66,West,262,6.0,8.0,97,0.00,,,0.17,Wunderground v.1.15,2013-03-10 09:33:00,
2013-03-10 04:38:00,43.6,42.8,29.66,West,259,6.0,8.0,97,0.00,,,0.17,Wunderground v.1.15,2013-03-10 09:38:00,
2013-03-10 04:44:00,43.5,42.7,29.66,West,259,5.0,7.0,97,0.00,,,0.17,Wunderground v.1.15,2013-03-10 09:44:00,
2013-03-10 04:54:00,44.2,43.4,29.66,West,259,4.0,7.0,97,0.00,,,0.17,Wunderground v.1.15,2013-03-10 09:54:00,
2013-03-10 04:59:00,43.9,43.1,29.66,West,259,5.0,7.0,97,0.00,,,0.17,Wunderground v.1.15,2013-03-10 09:59:00,
2013-03-10 05:05:00,43.4,42.6,29.65,SSW,202,4.0,7.0,97,0.00,,,0.17,Wunderground v.1.15,2013-03-10 10:05:00,
2013-03-10 05:10:00,43.2,42.1,29.65,SSW,203,5.0,5.0,96,0.00,,,0.17,Wunderground v.1.15,2013-03-10 10:10:00,
2013-03-10 05:16:00,43.1,42.0,29.65,SW,232,5.0,7.0,96,0.00,,,0.17,Wunderground v.1.15,2013-03-10 10:16:00,
2013-03-10 05:21:00,44.3,43.5,29.66,WSW,238,5.0,7.0,97,0.00,,,0.17,Wunderground v.1.15,2013-03-10 10:21:00,
2013-03-10 05:26:00,44.7,43.9,29.66,WSW,237,5.0,7.0,97,0.00,,,0.17,Wunderground v.1.15,2013-03-10 10:26:00,
2013-03-10 05:32:00,44.6,43.8,29.66,SSW,198,4.0,7.0,97,0.00,,,0.17,Wunderground v.1.15,2013-03-10 10:32:00,
2013-03-10 05:38:00,45.5,44.7,29.65,SSW,196,2.0,7.0,97,0.00,,,0.17,Wunderground v.1.15,2013-03-10 10:38:00,
2013-03-10 05:46:00,46.2,45.4,29.63,South,173,3.0,7.0,97,0.00,,,0.17,Wunderground v.1.15,2013-03-10 10:46:00,
2013-03-10 05:52:00,45.0,44.2,29.63,South,169,4.0,7.0,97,0.00,,,0.17,Wunderground v.1.15,2013-03-10 10:52:00,
2013-03-10 05:57:00,45.4,44.6,29.62,South,174,4.0,7.0,97,0.00,,,0.17,Wunderground v.1.15,2013-03-10 10:57:00,
2013-03-10 06:03:00,45.3,44.5,29.63,South,184,3.0,7.0,97,0.00,,,0.17,Wunderground v.1.15,2013-03-10 11:03:00,
2013-03-10 06:08:00,45.3,44.5,29.65,SW,217,1.0,7.0,97,0.00,,,0.17,Wunderground v.1.15,2013-03-10 11:08:00,
2013-03-10 06:14:00,45.1,44.3,29.65,SW,223,3.0,7.0,97,0.00,,,0.17,Wunderground v.1.15,2013-03-10 11:14:00,
2013-03-10 06:19:00,44.8,44.0,29.66,SSW,212,3.0,7.0,97,0.00,,,0.17,Wunderground v.1.15,2013-03-10 11:19:00,
2013-03-10 06:25:00,45.5,44.7,29.66,SSW,212,1.0,7.0,97,0.00,,,0.17,Wunderground v.1.15,2013-03-10 11:25:00,
2013-03-10 06:31:00,45.8,45.0,29.66,South,188,0.0,7.0,97,0.00,,,0.17,Wunderground v.1.15,2013-03-10 11:31:00,
2013-03-10 06:36:00,44.5,43.7,29.66,South,188,0.0,7.0,97,0.00,,,0.17,Wunderground v.1.15,2013-03-10 11:36:00,
2013-03-10 06:42:00,44.3,43.5,29.67,SW,231,2.0,7.0,97,0.00,,,0.17,Wunderground v.1.15,2013-03-10 11:42:00,
2013-03-10 06:47:00,45.5,44.7,29.67,SSW,211,3.0,7.0,97,0.00,,,0.17,Wunderground v.1.15,2013-03-10 11:47:00,
2013-03-10 06:54:00,44.7,43.9,29.68,SSW,211,4.0,7.0,97,0.00,,,0.17,Wunderground v.1.15,2013-03-10 11:54:00,
2013-03-10 07:00:00,44.6,43.8,29.68,WSW,238,4.0,7.0,97,0.00,,,0.17,Wunderground v.1.15,2013-03-10 12:00:00,
2013-03-10 07:05:00,45.3,44.5,29.68,SW,217,4.0,7.0,97,0.00,,,0.17,Wunderground v.1.15,2013-03-10 12:05:00,
2013-03-10 07:11:00,45.8,45.0,29.69,WSW,242,6.0,7.0,97,0.00,,,0.17,Wunderground v.1.15,2013-03-10 12:11:00,
2013-03-10 07:16:00,46.0,45.2,29.69,WSW,242,5.0,7.0,97,0.00,,,0.17,Wunderground v.1.15,2013-03-10 12:16:00,
2013-03-10 07:25:00,45.7,44.9,29.68,SSW,205,4.0,7.0,97,0.00,,,0.17,Wunderground v.1.15,2013-03-10 12:25:00,
2013-03-10 07:37:00,45.5,44.7,29.67,WSW,239,5.0,7.0,97,0.00,,,0.17,Wunderground v.1.15,2013-03-10 12:37:00,
2013-03-10 07:43:00,45.3,44.5,29.67,SSW,205,5.0,7.0,97,0.00,,,0.17,Wunderground v.1.15,2013-03-10 12:43:00,
2013-03-10 07:49:00,46.1,45.3,29.66,South,191,3.0,7.0,97,0.00,,,0.17,Wunderground v.1.15,2013-03-10 12:49:00,
2013-03-10 07:55:00,46.0,45.2,29.66,South,173,2.0,7.0,97,0.00,,,0.17,Wunderground v.1.15,2013-03-10 12:55:00,
2013-03-10 08:00:00,45.7,44.9,29.66,South,184,2.0,2.0,97,0.00,,,0.17,Wunderground v.1.15,2013-03-10 13:00:00,
2013-03-10 08:06:00,45.6,44.8,29.66,South,187,2.0,7.0,97,0.00,,,0.17,Wunderground v.1.15,2013-03-10 13:06:00,
2013-03-10 08:11:00,46.3,45.5,29.66,South,188,3.0,7.0,97,0.00,,,0.17,Wunderground v.1.15,2013-03-10 13:11:00,
2013-03-10 08:17:00,46.8,46.0,29.66,SSW,192,2.0,7.0,97,0.00,,,0.17,Wunderground v.1.15,2013-03-10 13:17:00,
2013-03-10 08:22:00,46.8,46.0,29.67,SSW,194,2.0,7.0,97,0.00,,,0.17,Wunderground v.1.15,2013-03-10 13:22:00,
2013-03-10 08:28:00,46.0,45.2,29.68,SSW,207,3.0,7.0,97,0.00,,,0.17,Wunderground v.1.15,2013-03-10 13:28:00,
2013-03-10 08:33:00,45.4,44.6,29.68,SW,225,4.0,7.0,97,0.00,,,0.17,Wunderground v.1.15,2013-03-10 13:33:00,
2013-03-10 08:39:00,45.5,44.7,29.69,WSW,241,5.0,7.0,97,0.00,,,0.17,Wunderground v.1.15,2013-03-10 13:39:00,
2013-03-10 08:44:00,45.8,45.0,29.70,WSW,242,5.0,7.0,97,0.00,,,0.17,Wunderground v.1.15,2013-03-10 13:44:00,
2013-03-10 08:54:00,45.2,44.4,29.70,WSW,244,5.0,7.0,97,0.00,,,0.17,Wunderground v.1.15,2013-03-10 13:54:00,
2013-03-10 09:00:00,45.5,44.7,29.70,WSW,244,5.0,7.0,97,0.00,,,0.18,Wunderground v.1.15,2013-03-10 14:00:00,
2013-03-10 09:09:00,45.5,44.7,29.71,WSW,246,6.0,7.0,97,0.00,,,0.18,Wunderground v.1.15,2013-03-10 14:09:00,
2013-03-10 09:18:00,46.8,46.0,29.70,WSW,246,7.0,9.0,97,0.00,,,0.18,Wunderground v.1.15,2013-03-10 14:18:00,
2013-03-10 09:24:00,46.9,46.1,29.69,WSW,242,6.0,9.0,97,0.00,,,0.19,Wunderground v.1.15,2013-03-10 14:24:00,
2013-03-10 09:29:00,46.1,45.3,29.69,WSW,243,6.0,9.0,97,0.00,,,0.19,Wunderground v.1.15,2013-03-10 14:29:00,
2013-03-10 09:35:00,46.1,45.3,29.69,West,275,6.0,7.0,97,0.00,,,0.19,Wunderground v.1.15,2013-03-10 14:35:00,
2013-03-10 09:40:00,47.6,46.8,29.69,WNW,290,6.0,9.0,97,0.00,,,0.19,Wunderground v.1.15,2013-03-10 14:40:00,
2013-03-10 09:46:00,47.4,46.6,29.68,West,275,6.0,9.0,97,0.00,,,0.20,Wunderground v.1.15,2013-03-10 14:46:00,
2013-03-10 09:51:00,47.1,46.3,29.68,West,275,5.0,7.0,97,0.00,,,0.20,Wunderground v.1.15,2013-03-10 14:51:00,
2013-03-10 09:57:00,47.2,46.4,29.66,West,275,3.0,7.0,97,0.00,,,0.20,Wunderground v.1.15,2013-03-10 14:57:00,
2013-03-10 10:02:00,46.8,46.0,29.64,West,275,2.0,7.0,97,0.00,,,0.20,Wunderground v.1.15,2013-03-10 15:02:00,
2013-03-10 10:08:00,46.8,46.0,29.65,West,275,1.0,7.0,97,0.00,,,0.20,Wunderground v.1.15,2013-03-10 15:08:00,
2013-03-10 10:16:00,45.2,44.4,29.67,West,275,4.0,7.0,97,0.00,,,0.20,Wunderground v.1.15,2013-03-10 15:16:00,
2013-03-10 10:22:00,46.6,45.8,29.67,West,275,5.0,7.0,97,0.00,,,0.20,Wunderground v.1.15,2013-03-10 15:22:00,
2013-03-10 10:27:00,47.2,46.4,29.67,West,275,5.0,7.0,97,0.00,,,0.20,Wunderground v.1.15,2013-03-10 15:27:00,
2013-03-10 10:33:00,47.1,46.3,29.67,West,275,5.0,9.0,97,0.00,,,0.20,Wunderground v.1.15,2013-03-10 15:33:00,
2013-03-10 10:38:00,47.1,46.3,29.69,WNW,290,6.0,9.0,97,0.00,,,0.20,Wunderground v.1.15,2013-03-10 15:38:00,
2013-03-10 10:44:00,46.5,45.7,29.70,WNW,290,7.0,7.0,97,0.00,,,0.20,Wunderground v.1.15,2013-03-10 15:44:00,
2013-03-10 10:49:00,46.7,45.9,29.71,WNW,288,7.0,14.0,97,0.00,,,0.21,Wunderground v.1.15,2013-03-10 15:49:00,
2013-03-10 10:55:00,47.1,46.3,29.72,WNW,288,7.0,7.0,97,0.00,,,0.21,Wunderground v.1.15,2013-03-10 15:55:00,
2013-03-10 11:00:00,47.3,46.5,29.72,WNW,284,8.0,8.0,97,0.06,,,0.22,Wunderground v.1.15,2013-03-10 16:00:00,
2013-03-10 11:06:00,47.0,46.2,29.71,WNW,282,7.0,8.0,97,0.06,,,0.22,Wunderground v.1.15,2013-03-10 16:06:00,
2013-03-10 11:12:00,47.0,46.2,29.70,WNW,288,7.0,8.0,97,0.04,,,0.23,Wunderground v.1.15,2013-03-10 16:12:00,
2013-03-10 11:17:00,46.5,45.7,29.70,WNW,286,6.0,8.0,97,0.04,,,0.23,Wunderground v.1.15,2013-03-10 16:17:00,
2013-03-10 11:23:00,45.9,45.1,29.70,WNW,290,5.0,7.0,97,0.06,,,0.24,Wunderground v.1.15,2013-03-10 16:23:00,
2013-03-10 11:29:00,45.6,44.8,29.69,WNW,286,5.0,7.0,97,0.06,,,0.24,Wunderground v.1.15,2013-03-10 16:29:00,
2013-03-10 11:35:00,45.8,45.0,29.68,WNW,286,4.0,7.0,97,0.04,,,0.24,Wunderground v.1.15,2013-03-10 16:35:00,
2013-03-10 11:40:00,46.1,45.3,29.67,WNW,286,1.0,7.0,97,0.04,,,0.25,Wunderground v.1.15,2013-03-10 16:40:00,
2013-03-10 11:46:00,45.9,45.1,29.67,WNW,286,0.0,7.0,97,0.10,,,0.26,Wunderground v.1.15,2013-03-10 16:46:00,
2013-03-10 11:52:00,45.5,44.7,29.67,WNW,286,0.0,7.0,97,0.07,,,0.26,Wunderground v.1.15,2013-03-10 16:52:00,
2013-03-10 11:57:00,45.3,44.5,29.67,WNW,286,0.0,7.0,97,0.05,,,0.27,Wunderground v.1.15,2013-03-10 16:57:00,
2013-03-10 12:03:00,44.9,44.1,29.67,WNW,286,0.0,7.0,97,0.05,,,0.27,Wunderground v.1.15,2013-03-10 17:03:00,
2013-03-10 12:08:00,44.6,43.8,29.67,WNW,286,2.0,7.0,97,0.05,,,0.28,Wunderground v.1.15,2013-03-10 17:08:00,
2013-03-10 12:14:00,44.3,43.5,29.67,WNW,286,3.0,7.0,97,0.05,,,0.28,Wunderground v.1.15,2013-03-10 17:14:00,
2013-03-10 12:20:00,43.8,43.0,29.67,WNW,286,2.0,7.0,97,0.05,,,0.28,Wunderground v.1.15,2013-03-10 17:20:00,
2013-03-10 12:25:00,43.1,42.3,29.68,WNW,286,3.0,7.0,97,0.00,,,0.28,Wunderground v.1.15,2013-03-10 17:25:00,
2013-03-10 12:31:00,43.6,42.8,29.69,WNW,286,4.0,7.0,97,0.00,,,0.29,Wunderground v.1.15,2013-03-10 17:31:00,
2013-03-10 12:38:00,45.0,44.2,29.69,West,276,5.0,7.0,97,0.11,,,0.30,Wunderground v.1.15,2013-03-10 17:38:00,
2013-03-10 12:44:00,45.1,44.3,29.69,West,271,6.0,8.0,97,0.07,,,0.30,Wunderground v.1.15,2013-03-10 17:44:00,
2013-03-10 12:49:00,45.4,44.6,29.69,West,280,6.0,8.0,97,0.06,,,0.31,Wunderground v.1.15,2013-03-10 17:49:00,
2013-03-10 12:55:00,45.4,44.6,29.69,West,279,7.0,8.0,97,0.10,,,0.32,Wunderground v.1.15,2013-03-10 17:55:00,
2013-03-10 13:01:00,45.5,44.7,29.69,WNW,284,7.0,7.0,97,0.06,,,0.33,Wunderground v.1.15,2013-03-10 18:01:00,
2013-03-10 13:06:00,45.5,44.7,29.67,West,271,7.0,7.0,97,0.06,,,0.33,Wunderground v.1.15,2013-03-10 18:06:00,
2013-03-10 13:11:00,45.4,44.6,29.66,West,271,5.0,7.0,97,0.09,,,0.34,Wunderground v.1.15,2013-03-10 18:11:00,
2013-03-10 13:17:00,45.4,44.6,29.66,West,271,5.0,7.0,97,0.06,,,0.34,Wunderground v.1.15,2013-03-10 18:17:00,
2013-03-10 13:22:00,45.1,44.3,29.67,West,271,5.0,7.0,97,0.04,,,0.34,Wunderground v.1.15,2013-03-10 18:22:00,
2013-03-10 13:28:00,45.5,44.7,29.66,West,271,3.0,7.0,97,0.00,,,0.35,Wunderground v.1.15,2013-03-10 18:28:00,
2013-03-10 13:33:00,45.6,44.8,29.66,West,271,3.0,7.0,97,0.00,,,0.35,Wunderground v.1.15,2013-03-10 18:33:00,
2013-03-10 13:39:00,45.1,44.3,29.65,West,271,3.0,7.0,97,0.05,,,0.36,Wunderground v.1.15,2013-03-10 18:39:00,
2013-03-10 13:45:00,44.3,43.5,29.66,West,271,1.0,7.0,97,0.05,,,0.36,Wunderground v.1.15,2013-03-10 18:45:00,
2013-03-10 13:50:00,44.2,43.4,29.65,West,271,1.0,7.0,97,0.05,,,0.37,Wunderground v.1.15,2013-03-10 18:50:00,
2013-03-10 13:56:00,44.2,43.4,29.63,South,175,2.0,7.0,97,0.05,,,0.37,Wunderground v.1.15,2013-03-10 18:56:00,
2013-03-10 14:01:00,43.9,43.1,29.62,SE,145,3.0,7.0,97,0.05,,,0.37,Wunderground v.1.15,2013-03-10 19:01:00,
2013-03-10 14:07:00,44.1,43.3,29.61,SSE,158,3.0,7.0,97,0.00,,,0.37,Wunderground v.1.15,2013-03-10 19:07:00,
2013-03-10 14:12:00,44.0,43.2,29.60,SSE,166,4.0,8.0,97,0.00,,,0.38,Wunderground v.1.15,2013-03-10 19:12:00,
2013-03-10 14:18:00,44.2,43.4,29.60,SE,130,4.0,8.0,97,0.00,,,0.38,Wunderground v.1.15,2013-03-10 19:18:00,
2013-03-10 14:24:00,44.5,43.7,29.59,SSE,165,4.0,7.0,97,0.00,,,0.38,Wunderground v.1.15,2013-03-10 19:24:00,
2013-03-10 14:29:00,44.3,43.5,29.60,South,178,4.0,7.0,97,0.00,,,0.38,Wunderground v.1.15,2013-03-10 19:29:00,
2013-03-10 14:35:00,44.3,43.5,29.59,SSE,153,2.0,7.0,97,0.00,,,0.38,Wunderground v.1.15,2013-03-10 19:35:00,
2013-03-10 14:40:00,44.6,43.8,29.53,SSE,155,6.0,14.0,97,0.00,,,0.38,Wunderground v.1.15,2013-03-10 19:40:00,
2013-03-10 14:46:00,44.1,43.3,29.52,SSE,153,12.0,15.0,97,0.00,,,0.38,Wunderground v.1.15,2013-03-10 19:46:00,
2013-03-10 14:52:00,44.7,43.9,29.56,SSW,207,12.0,13.0,97,0.00,,,0.38,Wunderground v.1.15,2013-03-10 19:52:00,
2013-03-10 14:57:00,44.3,43.5,29.58,WSW,244,9.0,13.0,97,0.00,,,0.38,Wunderground v.1.15,2013-03-10 19:57:00,
2013-03-10 15:02:00,44.9,44.1,29.59,NW,306,7.0,7.0,97,0.00,,,0.38,Wunderground v.1.15,2013-03-10 20:02:00,
2013-03-10 15:08:00,45.5,44.7,29.58,NW,311,8.0,14.0,97,0.00,,,0.38,Wunderground v.1.15,2013-03-10 20:08:00,
2013-03-10 15:14:00,45.4,44.6,29.59,WNW,294,9.0,9.0,97,0.00,,,0.38,Wunderground v.1.15,2013-03-10 20:14:00,
2013-03-10 15:19:00,45.1,44.3,29.59,WNW,296,7.0,9.0,97,0.00,,,0.38,Wunderground v.1.15,2013-03-10 20:19:00,
2013-03-10 15:25:00,45.4,44.6,29.60,WNW,287,6.0,9.0,97,0.00,,,0.38,Wunderground v.1.15,2013-03-10 20:25:00,
2013-03-10 15:31:00,45.5,44.7,29.61,WNW,290,8.0,8.0,97,0.00,,,0.38,Wunderground v.1.15,2013-03-10 20:31:00,
2013-03-10 15:37:00,45.5,44.7,29.61,WNW,294,6.0,9.0,97,0.00,,,0.38,Wunderground v.1.15,2013-03-10 20:37:00,
2013-03-10 15:53:00,45.0,44.2,29.62,WNW,288,4.0,8.0,97,0.08,,,0.40,Wunderground v.1.15,2013-03-10 20:53:00,
2013-03-10 15:58:00,45.2,44.4,29.62,WNW,300,6.0,8.0,97,0.07,,,0.40,Wunderground v.1.15,2013-03-10 20:58:00,
2013-03-10 16:04:00,45.0,44.2,29.62,WNW,302,6.0,7.0,97,0.04,,,0.40,Wunderground v.1.15,2013-03-10 21:04:00,
2013-03-10 16:09:00,44.8,44.0,29.62,WNW,294,6.0,9.0,97,0.00,,,0.40,Wunderground v.1.15,2013-03-10 21:09:00,
2013-03-10 16:15:00,44.5,43.7,29.62,WNW,294,6.0,7.0,97,0.00,,,0.40,Wunderground v.1.15,2013-03-10 21:15:00,
2013-03-10 16:21:00,44.5,43.7,29.62,WNW,294,6.0,7.0,97,0.00,,,0.40,Wunderground v.1.15,2013-03-10 21:21:00,
2013-03-10 16:26:00,44.2,43.4,29.62,WNW,294,5.0,7.0,97,0.00,,,0.40,Wunderground v.1.15,2013-03-10 21:26:00,
2013-03-10 16:32:00,44.0,43.2,29.62,WNW,294,4.0,7.0,97,0.00,,,0.40,Wunderground v.1.15,2013-03-10 21:32:00,
2013-03-10 16:38:00,44.1,43.3,29.62,WNW,294,4.0,7.0,97,0.00,,,0.40,Wunderground v.1.15,2013-03-10 21:38:00,
2013-03-10 16:43:00,43.9,43.1,29.62,WNW,294,4.0,7.0,97,0.00,,,0.40,Wunderground v.1.15,2013-03-10 21:43:00,
2013-03-10 16:49:00,44.0,43.2,29.62,WNW,294,2.0,7.0,97,0.00,,,0.40,Wunderground v.1.15,2013-03-10 21:49:00,
2013-03-10 16:55:00,44.1,43.3,29.62,WNW,294,3.0,7.0,97,0.00,,,0.40,Wunderground v.1.15,2013-03-10 21:55:00,
2013-03-10 17:01:00,44.2,43.4,29.62,WNW,294,3.0,7.0,97,0.00,,,0.40,Wunderground v.1.15,2013-03-10 22:01:00,
2013-03-10 17:06:00,44.2,43.4,29.62,WNW,294,4.0,7.0,97,0.00,,,0.40,Wunderground v.1.15,2013-03-10 22:06:00,
2013-03-10 17:11:00,44.5,43.7,29.61,WNW,294,3.0,7.0,97,0.00,,,0.40,Wunderground v.1.15,2013-03-10 22:11:00,
2013-03-10 17:16:00,44.7,43.9,29.61,WNW,294,2.0,7.0,97,0.00,,,0.40,Wunderground v.1.15,2013-03-10 22:16:00,
2013-03-10 17:22:00,45.0,44.2,29.61,WNW,294,2.0,7.0,97,0.00,,,0.40,Wunderground v.1.15,2013-03-10 22:22:00,
2013-03-10 17:28:00,44.6,43.8,29.61,WNW,294,4.0,7.0,97,0.00,,,0.40,Wunderground v.1.15,2013-03-10 22:28:00,
2013-03-10 17:34:00,44.6,43.8,29.61,WNW,294,4.0,7.0,97,0.00,,,0.40,Wunderground v.1.15,2013-03-10 22:34:00,
2013-03-10 17:39:00,44.6,43.8,29.61,WNW,294,3.0,7.0,97,0.00,,,0.40,Wunderground v.1.15,2013-03-10 22:39:00,
2013-03-10 17:45:00,44.6,43.8,29.61,WNW,294,3.0,7.0,97,0.00,,,0.40,Wunderground v.1.15,2013-03-10 22:45:00,
2013-03-10 17:50:00,44.5,43.7,29.61,WNW,294,3.0,7.0,97,0.00,,,0.40,Wunderground v.1.15,2013-03-10 22:50:00,
2013-03-10 17:56:00,44.6,43.8,29.62,WNW,294,3.0,7.0,97,0.00,,,0.40,Wunderground v.1.15,2013-03-10 22:56:00,
2013-03-10 18:02:00,44.6,43.8,29.62,WNW,294,3.0,7.0,97,0.00,,,0.40,Wunderground v.1.15,2013-03-10 23:02:00,
2013-03-10 18:09:00,44.7,43.9,29.62,WNW,294,2.0,7.0,97,0.00,,,0.40,Wunderground v.1.15,2013-03-10 23:09:00,
2013-03-10 18:15:00,45.1,44.3,29.62,WNW,294,2.0,7.0,97,0.00,,,0.40,Wunderground v.1.15,2013-03-10 23:15:00,
2013-03-10 18:20:00,45.1,44.3,29.62,WNW,294,2.0,2.0,97,0.00,,,0.40,Wunderground v.1.15,2013-03-10 23:20:00,
2013-03-10 18:25:00,45.3,44.5,29.62,WNW,294,1.0,7.0,97,0.00,,,0.40,Wunderground v.1.15,2013-03-10 23:25:00,
2013-03-10 18:31:00,45.2,44.4,29.62,WNW,294,1.0,7.0,97,0.00,,,0.40,Wunderground v.1.15,2013-03-10 23:31:00,
2013-03-10 18:37:00,45.1,44.3,29.62,WNW,294,1.0,7.0,97,0.00,,,0.40,Wunderground v.1.15,2013-03-10 23:37:00,
2013-03-10 18:43:00,45.0,44.2,29.62,WNW,294,1.0,7.0,97,0.00,,,0.40,Wunderground v.1.15,2013-03-10 23:43:00,
2013-03-10 18:49:00,44.6,43.8,29.62,WNW,294,1.0,7.0,97,0.00,,,0.40,Wunderground v.1.15,2013-03-10 23:49:00,
2013-03-10 18:54:00,44.5,43.7,29.62,WNW,294,0.0,7.0,97,0.00,,,0.40,Wunderground v.1.15,2013-03-10 23:54:00,
2013-03-10 18:59:00,44.5,43.7,29.62,WNW,294,0.0,7.0,97,0.00,,,0.40,Wunderground v.1.15,2013-03-10 23:59:00,
2013-03-10 19:05:00,44.7,43.9,29.62,WNW,294,0.0,7.0,97,0.00,,,0.40,Wunderground v.1.15,2013-03-11 00:05:00,
2013-03-10 19:12:00,44.7,43.9,29.63,WNW,294,0.0,7.0,97,0.00,,,0.40,Wunderground v.1.15,2013-03-11 00:12:00,
2013-03-10 19:25:00,44.5,43.7,29.63,WNW,294,0.0,7.0,97,0.00,,,0.40,Wunderground v.1.15,2013-03-11 00:25:00,
2013-03-10 19:32:00,44.2,43.4,29.63,WNW,294,0.0,7.0,97,0.00,,,0.40,Wunderground v.1.15,2013-03-11 00:32:00,
2013-03-10 19:38:00,44.3,43.5,29.63,WNW,294,0.0,7.0,97,0.00,,,0.40,Wunderground v.1.15,2013-03-11 00:38:00,
2013-03-10 19:43:00,43.9,43.1,29.64,WNW,294,1.0,7.0,97,0.00,,,0.40,Wunderground v.1.15,2013-03-11 00:43:00,
2013-03-10 19:49:00,44.1,43.3,29.64,WNW,294,3.0,7.0,97,0.00,,,0.40,Wunderground v.1.15,2013-03-11 00:49:00,
2013-03-10 19:54:00,44.5,44.0,29.64,WNW,294,2.0,7.0,98,0.00,,,0.40,Wunderground v.1.15,2013-03-11 00:54:00,
2013-03-10 20:00:00,43.9,43.1,29.65,WNW,294,3.0,7.0,97,0.00,,,0.40,Wunderground v.1.15,2013-03-11 01:00:00,
2013-03-10 20:07:00,44.7,43.9,29.65,WNW,292,6.0,8.0,97,0.00,,,0.40,Wunderground v.1.15,2013-03-11 01:07:00,
2013-03-10 20:17:00,44.6,43.8,29.65,WNW,298,10.0,10.0,97,0.00,,,0.40,Wunderground v.1.15,2013-03-11 01:17:00,
2013-03-10 20:23:00,43.8,43.3,29.65,WNW,294,13.0,18.0,98,0.00,,,0.40,Wunderground v.1.15,2013-03-11 01:23:00,
2013-03-10 20:28:00,43.4,42.6,29.66,WNW,287,14.0,18.0,97,0.00,,,0.40,Wunderground v.1.15,2013-03-11 01:28:00,
2013-03-10 20:34:00,43.1,42.3,29.66,WNW,286,13.0,16.0,97,0.00,,,0.40,Wunderground v.1.15,2013-03-11 01:34:00,
2013-03-10 20:40:00,42.9,42.1,29.66,WNW,293,13.0,19.0,97,0.00,,,0.40,Wunderground v.1.15,2013-03-11 01:40:00,
2013-03-10 20:45:00,42.7,41.4,29.66,West,279,13.0,19.0,95,0.00,,,0.40,Wunderground v.1.15,2013-03-11 01:45:00,
2013-03-10 20:50:00,42.7,41.4,29.66,WNW,292,15.0,15.0,95,0.00,,,0.40,Wunderground v.1.15,2013-03-11 01:50:00,
2013-03-10 20:57:00,42.2,40.6,29.66,WNW,286,13.0,15.0,94,0.00,,,0.40,Wunderground v.1.15,2013-03-11 01:57:00,
2013-03-10 21:03:00,41.9,40.6,29.66,WNW,286,12.0,16.0,95,0.00,,,0.40,Wunderground v.1.15,2013-03-11 02:03:00,
2013-03-10 21:09:00,41.5,40.2,29.66,WNW,299,12.0,19.0,95,0.00,,,0.40,Wunderground v.1.15,2013-03-11 02:09:00,
2013-03-10 21:14:00,41.3,40.2,29.67,NW,321,12.0,16.0,96,0.00,,,0.40,Wunderground v.1.15,2013-03-11 02:14:00,
2013-03-10 21:20:00,41.0,39.9,29.67,NW,309,13.0,15.0,96,0.00,,,0.40,Wunderground v.1.15,2013-03-11 02:20:00,
2013-03-10 21:25:00,40.8,39.7,29.67,NW,306,13.0,15.0,96,0.00,,,0.40,Wunderground v.1.15,2013-03-11 02:25:00,
2013-03-10 21:31:00,40.7,39.6,29.67,NW,306,11.0,11.0,96,0.00,,,0.40,Wunderground v.1.15,2013-03-11 02:31:00,
2013-03-10 21:37:00,40.5,39.4,29.68,NW,304,8.0,11.0,96,0.00,,,0.40,Wunderground v.1.15,2013-03-11 02:37:00,
2013-03-10 21:43:00,40.0,39.0,29.68,WNW,293,7.0,8.0,96,0.00,,,0.40,Wunderground v.1.15,2013-03-11 02:43:00,
2013-03-10 21:48:00,39.8,38.8,29.69,WNW,303,8.0,14.0,96,0.00,,,0.40,Wunderground v.1.15,2013-03-11 02:48:00,
2013-03-10 21:54:00,39.4,38.4,29.69,WNW,302,10.0,15.0,96,0.00,,,0.40,Wunderground v.1.15,2013-03-11 02:54:00,
2013-03-10 21:59:00,39.2,38.2,29.69,WNW,300,10.0,15.0,96,0.00,,,0.40,Wunderground v.1.15,2013-03-11 02:59:00,
2013-03-10 22:05:00,38.9,38.1,29.69,WNW,284,11.0,13.0,97,0.00,,,0.40,Wunderground v.1.15,2013-03-11 03:05:00,
2013-03-10 22:10:00,38.7,37.9,29.69,WNW,298,11.0,13.0,97,0.00,,,0.40,Wunderground v.1.15,2013-03-11 03:10:00,
2013-03-10 22:15:00,38.5,37.5,29.70,WNW,302,11.0,13.0,96,0.00,,,0.40,Wunderground v.1.15,2013-03-11 03:15:00,
2013-03-10 22:20:00,38.4,37.6,29.70,WNW,293,10.0,11.0,97,0.00,,,0.40,Wunderground v.1.15,2013-03-11 03:20:00,
2013-03-10 22:26:00,38.4,37.6,29.70,NW,310,9.0,11.0,97,0.00,,,0.40,Wunderground v.1.15,2013-03-11 03:26:00,
2013-03-10 22:32:00,38.3,37.5,29.70,NNW,328,8.0,11.0,97,0.00,,,0.40,Wunderground v.1.15,2013-03-11 03:32:00,
2013-03-10 22:37:00,38.0,37.2,29.71,WNW,299,10.0,12.0,97,0.00,,,0.40,Wunderground v.1.15,2013-03-11 03:37:00,
2013-03-10 22:43:00,37.9,37.1,29.71,WNW,302,11.0,12.0,97,0.00,,,0.40,Wunderground v.1.15,2013-03-11 03:43:00,
2013-03-10 22:48:00,37.8,37.0,29.71,WNW,300,10.0,12.0,97,0.00,,,0.40,Wunderground v.1.15,2013-03-11 03:48:00,
2013-03-10 22:53:00,37.8,37.0,29.71,WNW,301,8.0,9.0,97,0.00,,,0.40,Wunderground v.1.15,2013-03-11 03:53:00,
2013-03-10 22:59:00,37.8,37.0,29.70,NNW,327,9.0,12.0,97,0.00,,,0.40,Wunderground v.1.15,2013-03-11 03:59:00,
2013-03-10 23:00:00,37.8,37.0,29.71,NW,319,9.0,9.0,97,0.00,,,0.40,Wunderground v.1.15,2013-03-11 04:00:00,
2013-03-10 23:03:00,37.8,37.0,29.71,WNW,294,10.0,12.0,97,0.00,,,0.40,Wunderground v.1.15,2013-03-11 04:03:00,
2013-03-10 23:05:00,37.8,37.0,29.71,NNW,329,10.0,12.0,97,0.00,,,0.40,Wunderground v.1.15,2013-03-11 04:05:00,
2013-03-10 23:07:00,37.8,37.0,29.71,WNW,297,10.0,12.0,97,0.00,,,0.40,Wunderground v.1.15,2013-03-11 04:07:00,
2013-03-10 23:13:00,37.5,36.7,29.71,WNW,300,11.0,11.0,97,0.00,,,0.40,Wunderground v.1.15,2013-03-11 04:13:00,
2013-03-10 23:18:00,37.3,36.5,29.71,NW,312,12.0,16.0,97,0.00,,,0.40,Wunderground v.1.15,2013-03-11 04:18:00,
2013-03-10 23:24:00,37.1,36.1,29.71,NW,307,12.0,12.0,96,0.00,,,0.40,Wunderground v.1.15,2013-03-11 04:24:00,
2013-03-10 23:30:00,36.8,36.0,29.71,NW,325,11.0,11.0,97,0.00,,,0.40,Wunderground v.1.15,2013-03-11 04:30:00,
2013-03-10 23:36:00,36.6,35.8,29.71,NW,309,10.0,12.0,97,0.00,,,0.40,Wunderground v.1.15,2013-03-11 04:36:00,
2013-03-10 23:42:00,36.4,35.4,29.71,NW,311,10.0,13.0,96,0.00,,,0.40,Wunderground v.1.15,2013-03-11 04:42:00,
2013-03-10 23:48:00,36.3,35.3,29.71,NW,322,9.0,13.0,96,0.00,,,0.40,Wunderground v.1.15,2013-03-11 04:48:00,
2013-03-10 23:54:00,36.2,35.2,29.71,NW,314,9.0,12.0,96,0.00,,,0.40,Wunderground v.1.15,2013-03-11 04:54:00,
2013-03-10 23:59:00,36.0,35.0,29.71,NW,321,10.0,13.0,96,0.00,,,0.40,Wunderground v.1.15,2013-03-11 04:59:00,